Location: *
(38.9555°S, 57.3572°E)
Time: 01:37:17
(UTC+00:00)

Cosmos 1745 Rocket - Pass Details

Date: 15 July 2020
Orbit: 954 x 997 km, 83.0° (Epoch: 06 August)

Event Time Altitude Azimuth Distance (km) Brightness Sun altitude
Rises 14:41:41 0° 185° (S) 3,667 6.9 -17.9°
Reaches altitude 10° 14:44:14 10° 181° (S) 2,714 6.2 -18.4°
Maximum altitude 14:50:25 67° 99° (E) 1,042 3.9 -19.6°
Drops below altitude 10° 14:56:32 10° 16° (NNE) 2,693 6.3 -20.8°
Sets 14:59:03 0° 13° (NNE) 3,637 7.0 -21.2°
